Wind_Speed
11 12 11 10 8 7 6 6 5 5 4 5 9 13 17 23 22 21 19 19 19 18 15 13 13 14 10 8 8 8 5 5 3 4 7 7 9 8 8 8 11 14 8 9 3
13 13 12 10 8 8 7 6 6 6 5 5 7 13 16 22 23 22 21 20 21 19 17 17 14 10 9 7 6 5 6 4 2 5 6 6 7 6 7 7 12 10 9 5 0
13 13 13 11 9 9 7 6 6 7 6 6 6 12 17 19 23 22 23 22 22 22 21 19 15 13 12 7 4 3 2 5 6 9 4 7 9 7 7 7 8 8 6 5 2
13 14 13 11 10 9 7 6 6 6 6 5 5 10 17 18 21 24 23 22 22 23 21 19 17 14 11 9 6 6 4 7 9 13 14 11 11 10 10 6 7 7 5 5 2
12 14 14 12 11 10 7 5 4 4 4 4 3 9 16 18 19 22 25 24 22 22 18 17 13 11 12 9 7 11 5 8 9 16 14 17 12 13 8 7 11 9 6 3 4
12 12 13 13 13 12 9 7 5 4 5 6 5 8 13 15 16 18 20 21 22 19 16 13 11 9 6 9 11 15 12 10 13 17 16 17 12 12 13 13 15 14 9 3 2
13 12 12 13 14 14 11 9 7 7 7 7 8 11 11 11 12 14 15 15 14 11 10 8 7 4 1 11 13 11 9 12 14 17 18 15 11 11 15 17 18 18 14 8 5
14 13 12 13 15 15 12 11 10 9 9 10 11 12 13 14 14 15 14 12 9 10 10 11 8 7 10 11 13 11 7 12 12 15 16 14 11 12 15 16 17 18 19 15 8
15 15 13 13 16 17 14 13 13 13 12 11 12 12 13 13 13 13 12 11 10 11 14 16 20 20 14 12 12 10 11 13 11 11 12 15 13 16 15 12 13 14 16 17 17
17 16 16 14 18 18 16 16 15 13 11 11 12 12 12 14 14 13 11 12 10 9 14 15 20 22 16 12 12 10 12 13 10 8 11 14 14 11 12 14 9 13 15 15 17
17 17 17 16 20 20 19 18 17 14 12 10 9 11 10 9 12 12 10 11 10 9 10 14 24 20 17 13 6 7 8 5 1 5 8 10 10 9 13 14 14 16 13 14 16
18 18 17 19 23 22 21 21 20 18 16 14 11 11 11 8 6 7 7 8 9 9 10 13 17 18 16 11 7 12 8 5 7 7 7 5 7 6 16 18 17 19 16 11 13
20 20 18 22 25 24 24 22 21 19 17 15 12 11 7 7 6 7 8 7 9 10 9 10 13 13 13 7 9 8 6 5 7 8 6 4 8 4 9 13 14 11 14 16 10
20 20 20 25 27 25 23 21 21 19 17 15 14 11 9 8 8 9 8 9 11 14 14 14 15 15 13 9 9 5 4 5 5 5 3 4 6 2 4 9 12 12 12 17 13
21 22 22 27 26 25 24 22 21 20 17 15 13 11 8 8 8 8 8 9 11 13 15 14 13 11 13 14 8 4 5 11 10 10 4 2 2 2 3 7 7 9 13 14 10
21 23 25 28 28 28 26 23 21 20 16 12 10 9 5 6 7 7 7 7 10 13 12 10 11 11 15 12 10 8 9 10 9 7 5 5 9 8 10 2 6 11 13 17 11
17 25 26 30 31 29 27 24 21 19 19 14 11 9 8 7 6 7 10 14 19 21 19 17 16 15 12 14 13 14 13 13 10 17 13 13 12 10 11 8 5 13 14 14 13
17 25 28 33 32 30 26 23 22 20 18 15 12 8 6 6 10 15 17 22 20 15 13 8 13 14 15 15 18 16 16 14 11 22 13 14 13 13 15 12 9 8 11 10 10
19 24 30 34 33 29 26 23 21 17 19 16 15 18 13 15 15 17 17 17 17 14 14 12 13 12 14 16 17 22 19 17 12 15 16 15 13 11 16 14 14 14 13 11 12
22 23 31 35 34 30 26 25 20 16 18 19 18 18 13 13 15 15 16 12 12 12 10 11 10 11 12 17 20 19 22 20 17 16 19 20 16 16 14 16 22 18 16 18 18
23 23 33 35 34 30 27 26 25 20 15 18 20 19 12 10 11 11 14 12 11 16 10 9 13 16 14 18 19 19 18 19 19 21 22 24 23 20 17 20 22 24 24 21 19
22 23 35 36 35 30 29 29 26 24 17 26 23 15 11 11 12 17 12 11 10 13 11 14 15 17 16 21 20 21 22 21 22 20 22 26 27 28 28 28 30 31 30 30 31
18 24 33 33 34 33 32 30 29 26 23 22 18 15 13 19 20 22 27 18 19 12 6 2 8 18 24 24 25 26 24 23 24 26 28 29 29 28 28 31 33 36 36 29 30
17 27 32 33 33 33 36 35 32 28 26 23 22 22 19 21 18 14 15 22 20 17 9 14 19 21 24 32 32 33 30 30 30 30 30 29 30 31 30 31 28 28 33 35 35
18 25 29 32 32 35 38 36 30 28 26 29 27 27 28 27 24 23 22 23 23 23 23 24 24 17 20 24 27 29 35 40 39 38 36 33 34 34 36 36 35 36 36 35 38
19 22 27 30 32 35 36 35 32 30 29 28 27 27 29 26 27 33 32 33 31 24 22 22 26 21 20 23 23 26 29 34 38 40 38 38 38 39 39 39 39 40 43 46 44
18 20 24 28 33 35 33 35 33 32 30 28 26 26 23 24 26 30 31 35 36 30 24 19 18 21 24 26 26 27 28 30 33 36 39 39 38 39 39 39 39 41 41 41 42
Wind_Direction
227 228 236 237 240 227 218 226 244 241 228 211 203 196 188 181 179 176 175 177 180 184 192 203 203 202 199 213 218 248 356 18 4 2 40 21 22 42 357 39 56 90 128 144 113
225 227 232 233 235 221 220 235 255 246 226 218 210 200 193 187 183 178 177 180 182 180 187 195 203 204 218 231 268 290 16 70 77 27 23 11 34 48 29 51 82 79 96 109 235
222 224 230 229 229 218 221 247 256 244 232 221 228 208 196 191 190 184 182 182 183 184 193 199 202 210 216 231 258 322 12 93 57 59 21 34 37 39 37 36 63 75 64 61 89
222 226 226 226 220 218 226 248 246 235 229 232 235 210 195 193 189 190 188 191 189 192 197 205 212 226 228 243 241 123 104 79 67 60 59 65 45 57 42 38 45 62 78 87 41
224 227 228 226 215 212 220 224 217 204 186 189 208 187 185 191 190 193 195 198 198 205 207 216 228 245 260 272 187 111 86 105 93 78 66 57 42 63 67 49 57 54 40 52 125
223 226 226 222 216 208 208 202 195 175 158 150 132 149 174 183 189 192 200 205 207 210 215 227 246 264 282 259 164 138 145 124 93 71 59 57 42 33 58 63 54 55 53 60 160
227 224 224 221 214 204 200 196 190 169 163 157 142 129 130 141 155 172 186 201 214 216 218 221 240 305 78 163 138 131 123 101 89 72 51 58 60 38 55 62 62 52 55 76 77
226 225 223 219 213 200 197 187 176 165 158 149 139 130 125 126 128 133 141 158 163 142 170 185 192 136 174 139 134 135 104 97 87 76 66 64 76 66 61 61 61 60 55 57 86
226 226 224 217 208 196 191 181 171 161 153 145 138 134 132 131 132 136 145 160 173 182 175 177 162 148 157 147 135 129 109 103 93 78 81 77 88 101 76 59 61 61 59 59 61
224 226 225 217 201 193 188 177 169 166 163 159 152 148 149 144 139 135 147 150 161 191 189 178 161 164 168 159 156 158 144 117 87 96 103 99 101 95 85 70 73 64 64 60 57
226 226 223 214 194 190 184 174 170 167 158 152 156 152 152 153 152 147 156 149 153 177 190 177 167 177 187 183 205 194 177 133 119 116 142 125 125 113 70 71 81 53 46 41 55
224 223 219 204 189 186 181 177 172 166 165 162 160 158 154 157 154 150 166 167 170 180 188 186 192 200 205 208 217 192 173 176 201 153 184 151 139 104 86 84 87 49 54 43 32
216 217 213 197 187 187 183 180 178 173 168 167 167 169 172 183 191 198 192 191 190 192 206 212 221 226 227 224 200 171 162 186 201 177 179 175 157 103 87 94 65 36 48 49 33
212 214 207 193 189 185 179 182 178 176 172 173 177 184 195 217 230 233 228 222 217 212 204 215 224 235 247 212 208 172 198 224 182 199 175 165 164 42 58 71 44 23 27 31 36
210 208 200 192 188 180 175 176 175 174 178 187 186 200 210 225 236 239 237 236 233 214 208 225 234 244 210 197 170 160 167 187 185 187 177 126 147 330 282 42 11 350 13 20 22
208 202 194 189 185 178 172 171 173 180 170 186 195 215 217 227 228 228 229 202 189 187 158 171 193 192 184 167 172 177 184 177 164 181 186 221 250 265 262 284 360 347 350 344 347
205 194 188 185 183 176 172 170 173 168 184 176 196 216 186 191 206 191 195 159 148 146 155 166 166 153 162 156 176 186 196 158 160 165 195 234 252 273 291 314 334 347 346 346 1
199 188 184 182 181 175 171 174 182 182 183 178 180 157 159 143 179 156 154 150 155 161 140 159 145 150 159 162 171 198 200 189 171 184 217 250 273 285 280 296 276 341 343 347 6
195 187 182 182 179 175 173 179 188 180 187 157 138 130 125 149 171 158 158 172 172 179 172 136 157 154 179 172 180 200 212 219 210 230 248 254 265 274 280 273 279 298 309 344 337
191 188 183 183 180 176 176 186 185 188 179 160 163 153 162 151 156 177 179 187 208 201 214 189 189 202 195 201 202 202 217 228 227 235 255 261 251 269 278 281 283 288 303 319 311
187 187 185 183 181 177 173 190 189 194 206 198 203 176 184 200 183 189 203 194 197 195 193 204 222 222 222 209 213 204 217 227 235 228 241 255 262 265 259 271 281 289 299 306 312
188 191 187 184 181 177 177 191 200 197 193 201 220 209 206 233 255 256 224 240 234 248 257 252 257 234 228 225 227 226 228 232 237 241 247 251 257 262 268 278 286 294 302 300 300
198 191 187 185 182 178 185 196 205 211 219 219 220 242 229 241 256 251 249 241 235 245 259 279 262 239 237 244 246 250 253 253 255 254 254 259 264 267 271 278 284 289 294 297 304
201 185 184 185 185 184 189 203 213 215 214 214 239 253 252 245 241 252 263 239 242 255 269 290 297 253 241 246 258 263 267 268 270 268 268 272 276 276 275 277 283 286 288 290 298
183 181 185 185 186 193 203 214 220 226 222 229 230 245 258 268 275 267 264 253 261 276 276 279 288 274 249 241 245 255 257 261 266 267 268 272 277 280 283 285 286 286 288 289 295
177 181 185 186 191 203 211 221 225 228 237 241 242 239 250 256 257 261 270 271 274 277 271 264 277 269 264 255 253 253 253 250 256 262 265 268 272 274 275 277 281 285 287 288 286
176 180 186 190 203 212 217 227 231 233 238 242 248 255 266 256 255 257 259 265 269 268 269 265 257 253 257 266 268 262 257 256 258 259 262 266 270 274 276 277 278 278 277 277 277
Height
5876 5876 5877 5878 5878 5879 5879 5879 5880 5880 5880 5881 5882 5884 5887 5889 5891 5893 5896 5898 5898 5900 5901 5903 5904 5905 5907 5908 5908 5908 5907 5906 5906 5906 5907 5905 5904 5903 5903 5903 5903 5901 5897 5898 5897
5874 5875 5876 5876 5877 5878 5878 5879 5879 5879 5880 5880 5881 5883 5886 5888 5891 5893 5895 5896 5898 5900 5901 5901 5901 5905 5906 5908 5909 5908 5906 5908 5908 5907 5906 5906 5906 5906 5903 5903 5904 5904 5902 5899 5898
5872 5873 5874 5875 5876 5877 5877 5878 5878 5878 5878 5879 5880 5881 5884 5887 5890 5893 5894 5896 5898 5898 5899 5901 5903 5903 5906 5907 5908 5907 5908 5908 5908 5908 5906 5905 5905 5905 5903 5903 5904 5904 5901 5901 5899
5871 5872 5873 5874 5875 5876 5876 5877 5877 5877 5877 5878 5878 5879 5882 5885 5890 5892 5893 5895 5897 5897 5899 5901 5903 5905 5907 5908 5908 5909 5908 5908 5909 5908 5907 5905 5906 5907 5904 5902 5903 5903 5901 5900 5900
5869 5870 5871 5872 5873 5874 5876 5876 5876 5877 5877 5877 5877 5877 5880 5884 5887 5890 5891 5894 5896 5898 5901 5902 5904 5906 5906 5908 5908 5908 5910 5910 5910 5909 5909 5906 5906 5907 5905 5902 5901 5902 5902 5901 5899
5868 5868 5869 5870 5872 5873 5875 5875 5876 5877 5877 5877 5877 5877 5879 5883 5885 5888 5891 5894 5895 5898 5901 5904 5904 5906 5907 5908 5909 5908 5909 5911 5910 5909 5909 5908 5908 5907 5906 5904 5901 5901 5902 5902 5901
5866 5866 5867 5869 5870 5872 5874 5875 5876 5877 5878 5878 5878 5879 5881 5883 5885 5887 5889 5893 5895 5898 5901 5904 5905 5906 5907 5908 5909 5911 5911 5910 5910 5909 5910 5909 5910 5909 5908 5907 5905 5904 5904 5904 5903
5863 5864 5865 5867 5869 5871 5873 5874 5876 5877 5878 5879 5880 5881 5882 5884 5886 5889 5890 5892 5895 5899 5901 5903 5904 5906 5908 5909 5910 5912 5912 5911 5910 5910 5912 5911 5911 5911 5910 5910 5908 5907 5906 5905 5904
5860 5862 5863 5865 5867 5870 5872 5874 5876 5877 5879 5880 5882 5883 5885 5886 5888 5890 5892 5894 5895 5897 5899 5900 5902 5906 5909 5909 5910 5911 5912 5912 5912 5911 5912 5913 5913 5913 5912 5910 5911 5910 5910 5909 5907
5857 5859 5861 5862 5865 5868 5871 5874 5876 5879 5880 5882 5883 5886 5887 5888 5889 5891 5894 5895 5896 5898 5900 5901 5901 5906 5907 5908 5910 5910 5911 5911 5913 5914 5913 5913 5914 5915 5914 5911 5911 5911 5911 5911 5909
5854 5856 5858 5860 5863 5867 5871 5874 5877 5880 5881 5884 5885 5885 5887 5890 5891 5892 5894 5895 5896 5898 5900 5900 5902 5904 5906 5908 5909 5911 5911 5910 5912 5914 5914 5912 5913 5914 5913 5912 5912 5911 5910 5910 5910
5850 5853 5855 5858 5861 5865 5868 5871 5874 5878 5881 5882 5884 5886 5888 5889 5891 5893 5895 5896 5896 5898 5900 5902 5902 5903 5904 5907 5909 5908 5909 5909 5910 5911 5913 5913 5912 5912 5914 5912 5913 5912 5911 5910 5909
5846 5849 5852 5855 5859 5862 5867 5872 5875 5878 5881 5883 5885 5887 5889 5890 5891 5893 5894 5896 5897 5898 5899 5901 5902 5903 5905 5906 5907 5907 5907 5908 5909 5909 5910 5911 5912 5912 5913 5913 5913 5913 5912 5910 5910
5842 5846 5849 5853 5858 5862 5868 5871 5875 5878 5881 5884 5885 5886 5888 5889 5889 5891 5892 5895 5896 5897 5898 5900 5900 5902 5903 5906 5907 5906 5907 5908 5909 5911 5910 5911 5913 5913 5913 5911 5911 5912 5912 5910 5910
5838 5842 5846 5851 5856 5861 5867 5870 5874 5877 5880 5883 5883 5884 5886 5888 5888 5888 5890 5891 5893 5894 5897 5899 5900 5901 5902 5904 5905 5906 5907 5908 5908 5909 5910 5911 5912 5912 5912 5909 5909 5910 5911 5910 5909
5833 5838 5843 5849 5854 5859 5864 5869 5873 5877 5877 5880 5881 5882 5885 5886 5887 5887 5887 5889 5890 5891 5894 5896 5897 5899 5901 5902 5904 5904 5907 5907 5908 5908 5909 5909 5908 5908 5908 5906 5908 5909 5910 5910 5909
5830 5834 5840 5846 5852 5858 5863 5867 5871 5874 5877 5879 5880 5881 5882 5884 5885 5886 5887 5888 5889 5891 5893 5894 5895 5897 5899 5900 5903 5904 5906 5907 5907 5907 5906 5905 5906 5905 5905 5905 5907 5910 5908 5910 5909
5828 5832 5837 5844 5851 5857 5862 5866 5869 5872 5876 5877 5878 5879 5880 5883 5884 5885 5886 5887 5889 5892 5894 5895 5897 5897 5898 5900 5902 5902 5904 5905 5906 5906 5905 5904 5903 5903 5903 5904 5906 5907 5907 5908 5909
5826 5830 5836 5842 5849 5856 5861 5863 5865 5871 5874 5875 5876 5879 5881 5882 5884 5884 5886 5887 5889 5892 5896 5896 5897 5897 5897 5897 5899 5900 5902 5904 5904 5903 5904 5903 5902 5900 5899 5901 5903 5903 5904 5906 5906
5824 5828 5834 5840 5848 5854 5859 5861 5864 5869 5872 5874 5874 5875 5878 5882 5884 5884 5884 5887 5890 5894 5894 5894 5897 5898 5897 5896 5894 5896 5899 5900 5901 5902 5900 5899 5901 5899 5899 5898 5898 5900 5901 5903 5904
5823 5827 5832 5839 5846 5853 5857 5859 5862 5866 5870 5872 5872 5873 5877 5880 5882 5882 5884 5886 5889 5891 5891 5893 5895 5896 5895 5894 5894 5896 5895 5897 5898 5897 5897 5897 5898 5898 5898 5898 5897 5897 5897 5898 5901
5821 5825 5830 5836 5845 5851 5854 5856 5861 5865 5868 5868 5870 5873 5875 5878 5880 5881 5881 5883 5885 5887 5889 5891 5892 5893 5892 5891 5892 5892 5892 5893 5894 5895 5893 5893 5894 5895 5896 5895 5894 5892 5893 5895 5893
5819 5823 5830 5837 5844 5848 5851 5854 5858 5862 5865 5866 5869 5871 5873 5874 5879 5879 5878 5881 5881 5885 5887 5889 5889 5889 5889 5889 5889 5889 5890 5891 5891 5891 5889 5889 5890 5892 5892 5891 5891 5890 5889 5887 5886
5819 5823 5828 5835 5841 5846 5848 5851 5855 5860 5863 5865 5867 5868 5869 5873 5876 5876 5877 5878 5879 5881 5882 5884 5884 5884 5885 5884 5883 5884 5885 5885 5885 5885 5884 5885 5885 5886 5886 5887 5886 5884 5883 5881 5880
5818 5822 5827 5832 5839 5843 5845 5848 5853 5857 5860 5861 5865 5866 5865 5867 5870 5872 5873 5873 5875 5878 5878 5879 5878 5877 5877 5877 5878 5879 5879 5878 5877 5878 5878 5880 5879 5879 5879 5879 5878 5876 5875 5873 5871
5819 5822 5827 5833 5837 5840 5843 5845 5850 5853 5856 5858 5861 5865 5866 5865 5866 5867 5868 5868 5869 5870 5871 5872 5871 5871 5871 5870 5872 5872 5872 5872 5871 5871 5872 5872 5872 5872 5873 5872 5870 5868 5867 5864 5861
5820 5823 5827 5831 5835 5837 5841 5842 5845 5849 5852 5855 5857 5859 5860 5861 5861 5861 5861 5861 5862 5862 5862 5864 5866 5866 5866 5865 5865 5865 5865 5865 5865 5865 5864 5865 5864 5863 5862 5862 5862 5860 5858 5856 5854